Content
SEND FEEDBACK

Daily
Averages
Monthly
Summary
United States of America

ROANOKE, VIRGINIA


Home > North America > United States > Virginia
Elevation: 1149 feet     Latitude: 37 19N     Longitude: 079 58W

WEATHER
 
SELECT A DAY
Number of Records: 188,836;   Date Range: 1/1/95 - 7/22/14
 
SHARE

PRINT THIS DATA

[ ← Previous Day ]
WEATHER ALMANAC - FEBRUARY 13, 2013
[ Next Day → ]
[ °C ]   °F
Weather ElementAverageHighLow
Temperature43.5 °F45 °F (2:54 am)39.9 °F (10:54 pm)
Dewpoint35.6 °F42.1 °F (2:54 pm)24.1 °F (1:54 am)
Humidity75.7 %93 % (11:54 am)44 % (2:54 am)
Barometer29.74 in29.88 in (1:54 am)29.63 in (2:54 pm)
Wind Speed5.1 mph17.3 mph (6:54 pm)
Wind Gust27.6 mph (7:54 pm)
Weather ElementAverage
Visibility6.7 mi
Wind DirectionESE (116.4 °)

Weather ElementTotal
Precipitation0.22 in
Heating Degree Days22.6 (Base 65)
Averaged from 36 records on February 13, 2013
WEATHER CONDITIONS BREAKOUT
WIND DIRECTION BREAKOUT
WEATHER BY HOUR - FEBRUARY 13, 2013
[ °C ]   °F
Local TimeTemperatureDewpointHumidityBarometerVisibilityWind DirectionWind SpeedGust SpeedPrecipitationEventsConditions
1:54 AM44.1 °F24.1 °F45 %29.88 in10.0 miCalmOvercast
2:54 AM45.0 °F24.1 °F44 %29.87 in10.0 miCalmOvercast
3:54 AM45.0 °F24.1 °F44 %29.84 in10.0 miCalmOvercast
4:54 AM45.0 °F25.0 °F46 %29.82 in10.0 miNE (40°)4.6 mphOvercast
5:54 AM44.1 °F26.1 °F49 %29.82 in10.0 miCalmOvercast
6:54 AM45.0 °F25.0 °F46 %29.81 in10.0 miCalmOvercast
7:54 AM43.0 °F30.0 °F60 %29.80 in10.0 miCalm0.01 inMostly Cloudy
8:54 AM42.8 °F33.8 °F70 %29.82 in10.0 miESE (120°)6.9 mphOvercast
9:54 AM44.1 °F37.9 °F79 %29.80 in10.0 miEast (100°)4.6 mph0.00 inOvercast
10:27 AM44.6 °F39.2 °F81 %29.77 in10.0 miEast (100°)5.8 mph0.00 inRainLight Rain
10:54 AM43.0 °F39.9 °F89 %29.78 in5.0 miESE (110°)6.9 mph0.02 inRainLight Rain
11:03 AM42.8 °F39.2 °F87 %29.77 in6.0 miESE (120°)6.9 mph0.00 inRainLight Rain
11:20 AM42.8 °F39.2 °F87 %29.76 in7.0 miESE (110°)5.8 mph0.00 inOvercast
11:54 AM43.0 °F41.0 °F93 %29.74 in2.5 miSE (130°)6.9 mph0.00 inOvercast
12:49 PM44.6 °F41.0 °F87 %29.70 in2.5 miESE (120°)4.6 mph0.02 inOvercast
12:54 PM44.1 °F41.0 °F89 %29.70 in2.5 miESE (120°)4.6 mph0.02 inOvercast
1:28 PM44.6 °F41.0 °F87 %29.67 in2.5 miESE (120°)4.6 mphOvercast
1:46 PM44.6 °F41.0 °F87 %29.66 in1.5 miCalm0.00 inRainLight Rain
1:54 PM43.0 °F41.0 °F93 %29.66 in1.8 miCalm0.01 inRainLight Rain
2:54 PM44.1 °F42.1 °F93 %29.63 in1.8 miSSE (150°)3.5 mph0.02 inRainLight Rain
3:12 PM44.6 °F41.0 °F87 %29.63 in1.8 miSouth (180°)4.6 mph0.00 inRainLight Rain
3:16 PM44.6 °F41.0 °F87 %29.64 in10.0 miSSE (160°)3.5 mph0.00 inRainLight Rain
3:38 PM44.6 °F41.0 °F87 %29.64 in2.0 miSSE (160°)5.8 mph0.03 inRainLight Rain
3:54 PM44.1 °F41.0 °F89 %29.65 in4.0 miSouth (170°)4.6 mph0.03 inOvercast
4:54 PM44.1 °F41.0 °F89 %29.63 in10.0 miSE (140°)3.5 mph0.01 inRainLight Rain
5:41 PM42.8 °F41.0 °F93 %29.65 in4.0 miCalm0.00 inRainLight Rain
5:54 PM43.0 °F41.0 °F93 %29.66 in4.0 miCalm0.01 inRainLight Rain
6:09 PM42.8 °F41.0 °F93 %29.66 in4.0 miCalm0.01 inRainLight Rain
6:18 PM42.8 °F41.0 °F93 %29.67 in4.0 miCalm0.01 inRainLight Rain
6:43 PM44.6 °F35.6 °F71 %29.69 in4.0 miWest (280°)15.0 mph26.5 mph0.01 inHaze
6:54 PM43.0 °F34.0 °F71 %29.72 in10.0 miWest (280°)17.3 mph23.0 mph0.01 inMostly Cloudy
7:54 PM42.1 °F30.0 °F62 %29.76 in10.0 miWest (280°)17.3 mph27.6 mphMostly Cloudy
8:54 PM41.0 °F28.9 °F62 %29.79 in10.0 miWNW (300°)12.7 mphMostly Cloudy
9:54 PM41.0 °F28.9 °F62 %29.81 in10.0 miWNW (290°)10.4 mph21.9 mphScattered Clouds
10:54 PM39.9 °F28.9 °F65 %29.83 in10.0 miWNW (300°)9.2 mphMostly Cloudy
11:54 PM39.9 °F28.9 °F65 %29.85 in10.0 miNW (310°)12.7 mph19.6 mphOvercast
Hourly data recorded from KROA, located miles away from Roanoke, Virginia







STORIES FROM OUR PARTNERS